| time (UTC) | temp F | wind direction | speed MPH | gust MPH | rain 1hr in | rain 24hr in | rain mn in | humidity % | barometer mb |
| 20260903100040 | 79 | 132 | 1.0 | 0.0 | 0.00 | 0.00 | 0.00 | 84 | 1009.8 |
| 20260903094540 | 79 | 205 | 2.0 | 0.0 | 0.00 | 0.00 | 0.00 | 84 | 1009.9 |
| 20260903093042 | 80 | 112 | 1.0 | 0.0 | 0.00 | 0.00 | 0.00 | 83 | 1010.1 |
| 20260903091538 | 80 | 214 | 2.0 | 0.0 | 0.00 | 0.00 | 0.00 | 83 | 1010.2 |
| 20260903090034 | 80 | 105 | 1.0 | 0.0 | 0.00 | 0.00 | 0.00 | 83 | 1010.2 |
| 20260903084533 | 80 | 212 | 2.0 | 0.0 | 0.00 | 0.00 | 0.00 | 82 | 1010.3 |
| 20260903083043 | 80 | 216 | 2.0 | 0.0 | 0.00 | 0.00 | 0.00 | 82 | 1010.3 |
| 20260903081531 | 80 | 152 | 1.0 | 0.0 | 0.00 | 0.00 | 0.00 | 82 | 1010.3 |
| 20260903080031 | 80 | 154 | 1.0 | 0.0 | 0.00 | 0.00 | 0.00 | 81 | 1010.2 |
| 20260903074530 | 81 | 222 | 2.0 | 0.0 | 0.00 | 0.00 | 0.00 | 80 | 1010.2 |
| 20260903073032 | 81 | 193 | 1.0 | 0.0 | 0.00 | 0.00 | 0.00 | 79 | 1010.3 |
| 20260903071528 | 81 | 191 | 2.0 | 0.0 | 0.00 | 0.00 | 0.00 | 77 | 1010.4 |
| 20260903070027 | 81 | 124 | 2.0 | 0.0 | 0.00 | 0.00 | 0.00 | 76 | 1010.4 |
| 20260903064530 | 82 | 230 | 2.0 | 0.0 | 0.00 | 0.00 | 0.00 | 75 | 1010.5 |
| 20260903063026 | 82 | 206 | 1.0 | 0.0 | 0.00 | 0.00 | 0.00 | 73 | 1010.6 |
| 20260903061525 | 82 | 199 | 2.0 | 0.0 | 0.00 | 0.00 | 0.00 | 73 | 1010.6 |
| 20260903060023 | 82 | 154 | 2.0 | 0.0 | 0.00 | 0.00 | 0.00 | 72 | 1010.6 |
| 20260903054521 | 81 | 133 | 2.0 | 0.0 | 0.00 | 0.00 | 0.00 | 74 | 1010.6 |
| 20260903053019 | 80 | 145 | 1.0 | 0.0 | 0.00 | 0.00 | 0.00 | 76 | 1010.4 |
| 20260903051518 | 80 | 147 | 1.0 | 0.0 | 0.00 | 0.00 | 0.00 | 77 | 1010.5 |
| 20260903050015 | 80 | 147 | 1.0 | 0.0 | 0.00 | 0.00 | 0.00 | 77 | 1010.4 |
| 20260903044515 | 81 | 120 | 2.0 | 0.0 | 0.00 | 0.00 | 0.00 | 76 | 1010.3 |
| 20260903043014 | 81 | 112 | 2.0 | 0.0 | 0.00 | 0.00 | 0.00 | 75 | 1010.4 |
| 20260903041516 | 82 | 130 | 2.0 | 0.0 | 0.00 | 0.00 | 0.00 | 73 | 1010.3 |
| 20260903040015 | 83 | 129 | 1.0 | 0.0 | 0.00 | 0.00 | 0.00 | 70 | 1010.5 |
| 20260903034513 | 84 | 114 | 2.0 | 0.0 | 0.00 | 0.00 | 0.00 | 66 | 1010.5 |
| 20260903033015 | 86 | 128 | 2.0 | 0.0 | 0.00 | 0.00 | 0.00 | 61 | 1010.4 |
| 20260903031511 | 87 | 133 | 1.0 | 0.0 | 0.00 | 0.00 | 0.00 | 60 | 1010.1 |
| 20260903030013 | 87 | 131 | 1.0 | 0.0 | 0.00 | 0.00 | 0.00 | 61 | 1009.7 |
| 20260903024511 | 87 | 128 | 0.0 | 0.0 | 0.00 | 0.00 | 0.00 | 60 | 1009.2 |
| 20260903023011 | 88 | 128 | 0.0 | 0.0 | 0.00 | 0.00 | 0.00 | 60 | 1009.0 |
| 20260903021513 | 88 | 128 | 0.0 | 0.0 | 0.00 | 0.00 | 0.00 | 59 | 1008.8 |
| 20260903020010 | 89 | 128 | 0.0 | 0.0 | 0.00 | 0.00 | 0.00 | 58 | 1008.5 |
| 20260903014510 | 89 | 137 | 0.0 | 0.0 | 0.00 | 0.00 | 0.00 | 58 | 1008.3 |
| 20260903013011 | 90 | 123 | 1.0 | 0.0 | 0.00 | 0.00 | 0.00 | 56 | 1008.2 |
| 20260903011508 | 91 | 141 | 0.0 | 0.0 | 0.00 | 0.00 | 0.00 | 54 | 1008.2 |
| 20260903010008 | 91 | 133 | 0.0 | 0.0 | 0.00 | 0.00 | 0.00 | 53 | 1008.1 |
| 20260903004508 | 91 | 116 | 0.0 | 0.0 | 0.00 | 0.00 | 0.00 | 54 | 1008.2 |
| 20260903003008 | 91 | 137 | 1.0 | 0.0 | 0.00 | 0.00 | 0.00 | 54 | 1008.2 |
| 20260903001506 | 92 | 128 | 1.0 | 0.0 | 0.00 | 0.00 | 0.00 | 53 | 1008.1 |
| 20260903000006 | 94 | 99 | 1.0 | 0.0 | 0.00 | 0.00 | 0.00 | 50 | 1008.1 |
| 20260902234514 | 96 | 139 | 1.0 | 0.0 | 0.00 | 0.00 | 0.00 | 45 | 1008.2 |
| 20260902233004 | 97 | 27 | 1.0 | 0.0 | 0.00 | 0.00 | 0.00 | 43 | 1008.1 |
| 20260902231508 | 98 | 31 | 2.0 | 0.0 | 0.00 | 0.00 | 0.00 | 43 | 1008.0 |
| 20260902230007 | 101 | 56 | 1.0 | 0.0 | 0.00 | 0.00 | 0.00 | 40 | 1007.9 |
| 20260902224505 | 103 | 65 | 1.0 | 0.0 | 0.00 | 0.00 | 0.00 | 37 | 1007.8 |
| 20260902223003 | 103 | 324 | 1.0 | 0.0 | 0.00 | 0.00 | 0.00 | 37 | 1007.7 |
| 20260902221505 | 101 | 351 | 1.0 | 0.0 | 0.00 | 0.00 | 0.00 | 38 | 1007.9 |
| 20260902220001 | 101 | 235 | 1.0 | 0.0 | 0.00 | 0.00 | 0.00 | 38 | 1008.1 |
| 20260902214559 | 102 | 135 | 1.0 | 0.0 | 0.00 | 0.00 | 0.00 | 37 | 1008.2 |
| 20260902213059 | 104 | 187 | 2.0 | 0.0 | 0.00 | 0.00 | 0.00 | 35 | 1008.3 |
| 20260902211557 | 106 | 217 | 2.0 | 0.0 | 0.00 | 0.00 | 0.00 | 35 | 1008.3 |
| 20260902210058 | 105 | 226 | 2.0 | 0.0 | 0.00 | 0.00 | 0.00 | 34 | 1008.4 |
| 20260902204554 | 105 | 143 | 2.0 | 0.0 | 0.00 | 0.00 | 0.00 | 35 | 1008.6 |
| 20260902203051 | 106 | 283 | 2.0 | 0.0 | 0.00 | 0.00 | 0.00 | 35 | 1008.8 |
| 20260902201557 | 104 | 193 | 2.0 | 0.0 | 0.00 | 0.00 | 0.00 | 36 | 1009.1 |
| 20260902200044 | 103 | 187 | 2.0 | 0.0 | 0.00 | 0.00 | 0.00 | 37 | 1009.4 |
| 20260902194540 | 102 | 165 | 2.0 | 0.0 | 0.00 | 0.00 | 0.00 | 37 | 1009.7 |
| 20260902193037 | 101 | 309 | 1.0 | 0.0 | 0.00 | 0.00 | 0.00 | 39 | 1009.9 |
| 20260902191535 | 100 | 234 | 2.0 | 0.0 | 0.00 | 0.00 | 0.00 | 40 | 1010.3 |
| 20260902190031 | 98 | 257 | 2.0 | 0.0 | 0.00 | 0.00 | 0.00 | 42 | 1010.4 |
| 20260902184530 | 97 | 120 | 1.0 | 0.0 | 0.00 | 0.00 | 0.00 | 44 | 1010.6 |
| 20260902183028 | 99 | 316 | 3.0 | 0.0 | 0.00 | 0.00 | 0.00 | 42 | 1010.9 |
| 20260902181526 | 98 | 229 | 3.0 | 0.0 | 0.00 | 0.00 | 0.00 | 43 | 1011.1 |
| 20260902180024 | 99 | 201 | 2.0 | 0.0 | 0.00 | 0.00 | 0.00 | 43 | 1011.4 |
| 20260902174520 | 98 | 33 | 2.0 | 0.0 | 0.00 | 0.00 | 0.00 | 43 | 1011.8 |
| 20260902173033 | 98 | 18 | 2.0 | 0.0 | 0.00 | 0.00 | 0.00 | 45 | 1012.0 |
| 20260902171516 | 97 | 101 | 1.0 | 0.0 | 0.00 | 0.00 | 0.00 | 45 | 1012.2 |
| 20260902170014 | 96 | 21 | 1.0 | 0.0 | 0.00 | 0.00 | 0.00 | 46 | 1012.3 |
| 20260902164510 | 96 | 116 | 2.0 | 0.0 | 0.00 | 0.00 | 0.00 | 47 | 1012.7 |
| 20260902163008 | 95 | 275 | 2.0 | 0.0 | 0.00 | 0.00 | 0.00 | 49 | 1012.8 |
| 20260902161507 | 94 | 302 | 2.0 | 0.0 | 0.00 | 0.00 | 0.00 | 49 | 1012.8 |
| 20260902160007 | 93 | 12 | 1.0 | 0.0 | 0.00 | 0.00 | 0.00 | 50 | 1012.8 |
| 20260902154606 | 92 | 268 | 1.0 | 0.0 | 0.00 | 0.00 | 0.00 | 52 | 1012.9 |
| 20260902153058 | 91 | 185 | 1.0 | 0.0 | 0.00 | 0.00 | 0.00 | 54 | 1012.9 |
| 20260902151604 | 90 | 279 | 1.0 | 0.0 | 0.00 | 0.00 | 0.00 | 56 | 1012.9 |
| 20260902150046 | 88 | 226 | 1.0 | 0.0 | 0.00 | 0.00 | 0.00 | 59 | 1012.8 |
| 20260902144542 | 86 | 203 | 1.0 | 0.0 | 0.00 | 0.00 | 0.00 | 64 | 1012.8 |
| 20260902143044 | 84 | 293 | 1.0 | 0.0 | 0.00 | 0.00 | 0.00 | 67 | 1012.9 |
| 20260902141538 | 82 | 287 | 1.0 | 0.0 | 0.00 | 0.00 | 0.00 | 70 | 1012.9 |
| 20260902140039 | 81 | 318 | 1.0 | 0.0 | 0.00 | 0.00 | 0.00 | 72 | 1012.8 |
| 20260902134540 | 80 | 282 | 1.0 | 0.0 | 0.00 | 0.00 | 0.00 | 73 | 1012.8 |
| 20260902133046 | 79 | 245 | 0.0 | 0.0 | 0.00 | 0.00 | 0.00 | 76 | 1012.7 |
| 20260902131536 | 78 | 183 | 0.0 | 0.0 | 0.00 | 0.00 | 0.00 | 77 | 1012.5 |
| 20260902130033 | 77 | 118 | 0.0 | 0.0 | 0.00 | 0.00 | 0.00 | 78 | 1012.4 |
| 20260902124531 | 77 | 245 | 0.0 | 0.0 | 0.00 | 0.00 | 0.00 | 78 | 1012.3 |
| 20260902123032 | 76 | 245 | 0.0 | 0.0 | 0.00 | 0.00 | 0.00 | 79 | 1012.1 |
| 20260902121530 | 76 | 230 | 0.0 | 0.0 | 0.00 | 0.00 | 0.00 | 79 | 1012.0 |
| 20260902120037 | 76 | 160 | 0.0 | 0.0 | 0.00 | 0.00 | 0.00 | 78 | 1011.9 |
| 20260902114536 | 76 | 160 | 0.0 | 0.0 | 0.00 | 0.00 | 0.00 | 78 | 1011.9 |
| 20260902113027 | 76 | 160 | 0.0 | 0.0 | 0.00 | 0.00 | 0.00 | 78 | 1011.7 |
| 20260902111539 | 76 | 137 | 0.0 | 0.0 | 0.00 | 0.00 | 0.00 | 78 | 1011.8 |
| 20260902110048 | 77 | 137 | 0.0 | 0.0 | 0.00 | 0.00 | 0.00 | 77 | 1011.8 |
| 20260902104527 | 77 | 137 | 0.0 | 0.0 | 0.00 | 0.00 | 0.00 | 77 | 1011.8 |
| 20260902103021 | 77 | 137 | 0.0 | 0.0 | 0.00 | 0.00 | 0.00 | 76 | 1011.8 |
| 20260902101521 | 78 | 137 | 0.0 | 0.0 | 0.00 | 0.00 | 0.00 | 76 | 1011.8 |